SCP
0 0 -0 -0 0 0 0 0 0 0 0 0 0 0 0 0 0 0 0 0 0 0 0 0 0 0 0 0 0 0 0 0 0 0 0 0 0 0 0 0 -0 0 0
1 0 0 0 0 0 0 0 0 0 0 0 0 0 0 0 0 0 0 0 0 0 0 0 0 0 0 0 0 0 0 0 0 0 0 0 0 0 0 0 0 -0 0
1 0 0 1 0 1 0 0 0 0 0 0 0 0 -0 0 0 0 0 0 0 0 0 0 0 0 0 0 0 0 0 0 0 0 0 0 0 0 0 0 0 0 0
1 1 0 1 0 2 1 0 0 0 0 0 0 0 0 0 0 0 0 0 0 0 0 0 0 0 0 0 0 0 0 0 0 0 0 0 0 0 0 0 0 0 0
0 1 0 0 1 1 1 0 0 0 0 0 -0 0 0 0 0 0 0 0 0 0 0 0 0 0 0 0 0 0 0 0 0 0 0 0 0 0 0 0 0 0 0
0 0 1 1 2 1 1 1 0 0 0 0 0 0 0 0 0 0 0 0 0 0 0 0 0 0 0 0 0 0 0 0 0 0 0 0 0 -0 -0 0 0 0 0
1 1 0 1 1 1 1 2 1 0 0 0 0 0 0 0 0 0 0 0 0 0 0 0 0 0 0 0 0 0 0 0 0 0 0 0 -0 -0 0 0 0 0 0
2 1 1 0 1 1 2 2 1 0 0 0 0 0 0 0 0 0 0 0 0 0 0 0 0 0 0 0 0 0 0 0 0 0 0 0 0 0 0 0 0 0 0
1 1 0 0 1 1 1 3 1 1 0 0 0 0 0 0 0 0 0 0 0 0 0 0 0 0 0 0 0 0 0 0 0 0 0 0 0 0 0 0 0 0 0
1 0 0 0 1 2 1 2 2 1 1 0 0 0 0 0 0 0 0 0 0 0 0 0 0 0 0 0 0 0 0 0 0 0 0 0 0 0 0 0 0 0 0
1 1 1 1 1 2 2 2 2 1 1 1 0 0 0 0 0 0 0 0 0 0 0 0 0 0 0 0 0 0 0 0 0 0 0 0 0 0 0 0 0 0 0
1 1 1 2 2 2 4 4 2 2 2 2 0 0 0 0 0 0 0 0 0 0 0 0 0 0 0 0 0 0 0 0 0 0 0 0 0 0 0 0 0 0 0
3 1 1 2 2 2 3 5 4 3 2 1 1 0 0 0 0 0 0 0 0 0 0 0 0 0 0 0 0 0 0 0 0 0 0 0 0 0 0 0 0 0 0
4 5 3 2 3 3 4 4 3 2 1 1 1 1 0 0 0 0 0 0 0 0 0 0 0 0 0 0 0 0 0 0 0 0 0 0 0 0 0 0 0 0 0
4 4 4 3 3 5 4 4 2 2 1 1 1 1 1 0 1 0 0 0 0 0 0 0 0 0 0 0 0 0 0 0 0 0 0 0 0 0 0 0 0 0 0
4 4 5 5 5 4 3 2 2 2 1 1 1 2 2 1 1 0 0 0 0 0 0 0 0 0 0 0 0 0 0 0 0 0 0 0 0 0 0 0 0 0 0
2 3 3 3 3 2 2 2 2 1 1 1 1 1 1 1 1 0 0 0 0 0 0 0 0 0 0 0 0 0 0 0 0 0 0 0 0 0 -0 -0 0 0 0
1 2 2 2 2 2 1 1 1 1 1 1 0 1 1 1 1 0 1 0 0 0 0 0 0 0 0 0 0 0 0 0 0 0 0 0 0 0 0 0 0 0 0
0 1 1 1 2 1 1 1 1 0 0 0 0 0 1 1 1 0 0 0 0 0 0 0 0 0 0 0 0 0 0 0 0 0 0 0 0 0 0 0 0 0 0
1 0 0 1 1 1 0 1 1 0 1 1 0 0 0 1 0 0 0 0 0 0 0 0 0 0 0 0 0 0 0 0 0 0 0 0 0 0 0 0 0 0 0
0 1 1 1 1 1 1 0 1 1 1 0 0 0 0 0 0 0 0 0 0 0 0 0 0 0 0 0 0 0 0 0 0 0 0 0 0 0 0 0 0 0 0
0 0 0 1 1 1 0 0 0 1 1 1 0 0 0 0 0 0 0 0 0 0 0 0 0 0 0 0 0 0 0 0 0 0 0 0 0 0 0 0 0 0 0
1 1 0 0 0 1 0 0 0 0 0 0 1 1 1 0 0 0 0 0 0 0 0 0 0 0 1 0 0 0 0 0 0 0 0 0 0 0 0 0 0 0 0
1 1 1 0 0 -0 0 0 0 0 0 0 0 0 0 0 0 0 0 0 0 0 0 0 0 0 1 0 1 0 0 0 0 0 0 0 0 0 0 0 0 0 0
1 1 1 1 1 0 0 0 0 0 0 0 0 0 0 0 0 0 0 0 0 0 0 0 0 0 0 0 0 0 0 0 0 0 0 0 0 0 0 0 0 0 0
0 0 0 0 1 1 0 -0 -0 -0 0 0 0 0 0 0 0 0 0 0 0 0 0 0 0 0 0 0 0 0 0 0 0 0 0 0 0 0 0 0 0 0 0
Wind_Speed_500mb
28 20 20 18 14 10 4 4 10 17 7 9 2 5 8 17 11 24 28 29 28 21 14 10 9 8 11 15 16 16 16 19 23 24 23 22 22 25 28 28 26 28 28
29 27 23 21 20 12 10 8 9 8 6 8 13 9 9 3 3 15 22 26 30 24 14 9 8 11 13 13 13 13 14 17 18 20 22 22 24 27 29 29 29 29 29
32 32 28 21 14 19 23 18 19 17 11 8 11 19 1 6 8 15 18 25 29 28 24 15 10 10 11 11 10 9 9 12 15 18 21 22 23 26 27 28 28 29 31
41 42 33 30 22 21 21 13 13 4 11 10 11 8 7 10 12 19 9 17 23 23 27 13 18 14 10 7 5 6 10 15 18 20 21 22 23 23 24 26 27 30 33
40 44 36 36 31 26 14 17 10 12 13 15 15 23 20 13 15 11 7 17 14 22 30 26 26 19 11 7 5 8 13 18 20 20 21 20 19 19 21 24 27 30 33
43 42 38 32 34 32 29 22 24 17 18 10 10 11 10 3 15 11 22 24 10 14 25 30 31 14 12 12 10 11 16 20 22 21 23 23 23 23 27 29 32 34 36
47 49 43 40 43 35 33 24 36 30 28 16 19 13 16 26 20 26 21 18 13 25 16 23 28 19 21 16 20 13 25 24 28 27 27 27 27 26 29 32 36 38 40
55 51 43 45 43 46 43 43 40 26 18 19 24 16 22 25 33 20 24 22 15 25 13 29 15 25 19 22 24 23 31 25 30 33 33 34 33 31 33 37 39 42 43
64 58 51 43 39 36 33 44 31 33 28 16 20 20 11 7 22 28 18 25 21 31 22 31 25 29 34 29 24 27 28 31 38 36 36 34 34 34 35 39 43 45 46
61 51 45 44 48 44 41 43 31 32 34 29 24 23 30 25 6 6 21 22 24 34 29 27 30 35 34 32 23 31 36 41 38 40 37 33 31 32 37 41 45 46 49
40 50 53 52 50 54 46 49 44 38 39 36 39 23 22 15 26 26 29 18 31 31 36 29 40 27 29 27 23 30 38 43 40 42 34 30 31 34 39 45 47 48 52
48 47 52 55 55 55 60 52 49 47 46 42 39 46 34 28 21 21 26 24 33 43 40 25 25 29 34 29 25 30 38 41 40 36 28 28 29 34 41 47 48 51 53
53 57 42 58 60 67 63 58 62 61 54 53 50 47 55 51 46 42 34 29 30 29 33 29 29 33 28 29 40 37 42 41 37 27 25 24 28 35 42 46 51 53 51
37 52 50 37 42 55 54 60 72 69 62 58 62 61 55 58 48 43 37 28 30 30 29 33 35 29 31 34 40 45 46 38 25 22 20 22 28 35 42 47 52 50 44
42 46 47 45 43 49 56 64 69 67 64 62 64 68 66 60 59 47 39 32 32 34 33 28 38 30 30 40 43 44 43 30 23 20 18 22 27 35 42 48 51 45 37
36 43 48 48 51 47 53 57 62 66 67 67 67 68 66 64 56 53 44 38 40 36 37 27 23 30 26 35 34 37 30 26 21 18 20 23 28 34 41 48 49 40 31
25 30 39 48 52 46 48 47 49 49 54 58 66 67 67 58 53 49 46 39 44 35 36 24 16 33 30 34 37 35 24 16 16 18 23 26 25 32 41 46 46 34 26
31 33 35 36 36 33 35 39 45 47 45 49 53 65 63 56 49 41 34 33 37 33 35 29 27 28 28 33 36 34 22 14 20 26 19 27 25 33 38 45 43 27 18
25 31 39 37 34 35 40 45 41 44 44 43 42 44 55 56 39 38 48 40 37 37 37 43 24 31 36 32 25 25 20 15 19 15 22 24 30 35 37 40 47 29 10
26 23 23 42 45 42 40 41 41 40 39 42 39 47 52 52 47 47 46 54 41 39 46 45 38 35 29 28 25 23 18 10 8 12 23 22 28 32 34 34 49 37 16
12 17 22 21 35 40 38 38 37 43 45 43 38 47 56 53 52 51 53 49 49 46 43 43 46 33 31 28 37 23 17 11 14 25 27 21 22 29 31 30 42 41 27
17 13 10 19 21 26 38 46 42 39 49 43 34 37 44 47 57 51 48 49 52 50 60 47 46 38 36 34 28 22 19 13 29 24 22 11 18 28 32 36 40 43 29
21 16 15 17 21 27 26 23 38 44 54 56 46 42 43 51 59 61 61 62 67 58 59 61 53 43 40 37 44 40 38 31 30 19 17 17 18 23 29 34 36 36 39
31 20 19 18 28 26 29 34 32 34 46 57 62 70 75 73 71 75 73 64 77 81 71 72 64 70 53 55 41 43 38 38 32 27 31 19 13 24 28 35 38 34 39
38 32 23 19 32 29 31 38 40 41 44 46 53 64 63 61 61 63 61 60 58 71 77 75 82 72 76 70 56 49 43 38 32 19 21 29 20 22 30 30 38 33 36
42 41 27 31 32 35 28 43 43 45 46 44 53 52 58 59 62 62 62 66 70 71 75 84 92 94 93 94 89 66 62 48 30 22 21 24 19 19 18 32 29 38 35
Wind_Direction_500mb
194 218 194 219 264 300 284 283 269 289 292 345 20 284 269 245 263 314 316 318 339 312 308 293 263 257 269 278 275 277 281 280 285 293 297 296 292 293 297 298 300 299 299
210 198 208 209 194 213 259 215 266 286 338 270 308 310 274 264 292 322 326 332 335 343 318 294 276 269 277 286 289 291 293 293 297 303 304 302 303 298 296 299 297 291 289
206 205 200 213 206 231 248 252 271 302 334 311 280 298 264 283 270 240 291 319 330 340 5 314 283 291 293 292 294 303 312 319 326 324 317 314 309 304 307 302 303 298 287
215 217 199 206 203 243 253 258 263 256 300 285 285 287 284 265 263 290 165 312 321 334 336 2 325 297 299 304 306 333 336 336 332 326 323 322 318 316 314 313 309 302 298
236 221 214 198 206 218 255 257 246 232 241 287 247 263 229 249 274 286 249 233 263 299 307 310 327 295 289 292 301 322 335 338 339 336 337 336 331 333 333 330 327 322 312
239 226 214 194 206 219 214 241 233 216 238 224 256 252 207 215 259 255 270 284 270 256 286 291 310 300 351 314 298 316 331 343 346 339 334 332 330 337 342 338 334 329 319
238 227 217 207 209 200 214 231 238 245 238 238 235 243 279 304 269 239 253 279 224 271 239 281 311 299 318 319 316 303 334 335 343 337 330 324 328 338 337 335 333 327 323
231 230 231 221 220 215 212 220 232 230 225 201 225 225 257 255 271 265 219 244 229 257 242 262 275 279 293 304 310 312 319 323 332 334 327 325 332 335 332 334 332 331 328
232 229 236 227 222 224 221 223 229 215 206 222 235 216 251 243 329 247 253 225 229 253 232 267 259 237 257 268 290 305 302 308 317 324 322 323 329 330 331 334 334 331 327
241 232 229 226 214 222 226 234 232 218 209 200 226 247 244 254 276 136 242 268 236 242 249 225 260 267 282 283 276 285 292 297 308 318 318 319 327 334 333 337 333 330 326
251 235 236 237 225 221 223 223 225 225 213 208 208 231 252 265 259 268 281 265 256 258 254 239 230 269 277 284 282 261 274 289 302 311 313 321 329 338 342 340 334 337 333
259 250 243 234 231 219 219 222 225 225 215 215 213 207 210 222 238 244 249 267 267 268 255 239 245 251 257 278 277 274 272 284 298 304 310 321 334 344 345 344 343 340 335
259 266 263 247 233 232 225 227 224 232 227 226 228 224 216 213 215 217 223 252 259 290 215 209 234 252 259 254 255 259 274 287 297 298 310 325 343 349 349 347 344 340 339
243 252 259 254 252 236 229 225 228 233 240 233 235 240 234 230 221 227 235 236 248 267 232 262 257 262 241 240 245 263 270 285 288 298 315 336 349 353 351 348 344 343 346
247 238 243 249 249 228 228 228 233 238 241 243 244 244 245 233 222 223 230 228 234 258 267 263 241 239 222 235 252 263 274 280 290 299 320 342 350 355 353 349 346 348 351
250 248 244 241 237 239 242 241 241 242 243 247 243 245 242 239 233 224 224 232 236 242 260 268 271 225 234 235 246 267 272 275 282 295 323 337 352 354 354 352 349 352 352
247 242 242 247 229 249 255 246 244 240 251 248 246 247 248 243 238 230 227 235 240 241 251 256 233 222 232 237 256 271 265 264 278 306 307 334 350 356 358 358 354 351 1
263 256 250 241 243 241 247 239 241 241 247 256 260 251 249 241 243 234 224 238 238 236 243 236 226 224 235 258 259 251 250 245 268 279 302 327 347 352 359 1 357 353 31
321 268 243 213 216 244 251 246 255 260 258 256 257 246 244 237 238 239 221 220 227 230 247 232 227 239 257 265 240 234 246 256 248 283 309 323 334 345 351 355 358 351 9
338 323 269 244 254 255 246 251 254 260 252 257 255 236 241 236 233 233 236 229 223 234 239 251 233 239 252 248 237 241 239 261 291 272 286 313 323 333 332 340 357 355 331
300 326 325 284 262 261 252 242 247 249 251 258 261 244 239 234 229 231 240 238 228 231 231 241 243 233 242 246 239 245 249 227 239 256 267 293 301 319 308 322 344 352 357
313 310 290 311 307 287 269 253 247 238 253 260 264 255 242 232 238 235 240 252 248 229 233 234 244 228 245 251 251 229 221 228 245 256 258 275 269 296 289 307 324 347 343
298 310 327 311 294 297 302 289 274 261 249 248 248 252 255 261 256 242 238 256 248 240 232 235 234 246 240 244 237 218 219 225 237 254 245 276 250 255 287 295 314 331 347
277 291 306 331 319 319 307 296 290 286 272 264 261 258 264 268 261 254 257 258 245 235 232 228 235 239 228 252 221 227 246 246 249 250 263 269 224 256 277 296 311 315 334
287 283 296 308 300 304 307 296 287 285 287 288 271 262 263 266 262 255 256 258 254 243 234 234 233 230 230 251 245 248 242 261 256 248 267 253 253 229 277 291 298 303 320
267 276 270 271 284 295 289 285 289 293 275 281 289 279 263 262 263 259 256 258 259 257 242 237 238 244 249 236 240 236 248 251 246 236 260 232 215 226 243 280 285 304 310
Wind_Speed_850mb
28 20 20 18 14 10 4 4 10 17 7 9 2 5 8 17 11 24 28 29 28 21 14 10 9 8 11 15 16 16 16 19 23 24 23 22 22 25 28 28 26 28 28
29 27 23 21 20 12 10 8 9 8 6 8 13 9 9 3 3 15 22 26 30 24 14 9 8 11 13 13 13 13 14 17 18 20 22 22 24 27 29 29 29 29 29
32 32 28 21 14 19 23 18 19 17 11 8 11 19 1 6 8 15 18 25 29 28 24 15 10 10 11 11 10 9 9 12 15 18 21 22 23 26 27 28 28 29 31
41 42 33 30 22 21 21 13 13 4 11 10 11 8 7 10 12 19 9 17 23 23 27 13 18 14 10 7 5 6 10 15 18 20 21 22 23 23 24 26 27 30 33
40 44 36 36 31 26 14 17 10 12 13 15 15 23 20 13 15 11 7 17 14 22 30 26 26 19 11 7 5 8 13 18 20 20 21 20 19 19 21 24 27 30 33
43 42 38 32 34 32 29 22 24 17 18 10 10 11 10 3 15 11 22 24 10 14 25 30 31 14 12 12 10 11 16 20 22 21 23 23 23 23 27 29 32 34 36
47 49 43 40 43 35 33 24 36 30 28 16 19 13 16 26 20 26 21 18 13 25 16 23 28 19 21 16 20 13 25 24 28 27 27 27 27 26 29 32 36 38 40
55 51 43 45 43 46 43 43 40 26 18 19 24 16 22 25 33 20 24 22 15 25 13 29 15 25 19 22 24 23 31 25 30 33 33 34 33 31 33 37 39 42 43
64 58 51 43 39 36 33 44 31 33 28 16 20 20 11 7 22 28 18 25 21 31 22 31 25 29 34 29 24 27 28 31 38 36 36 34 34 34 35 39 43 45 46
61 51 45 44 48 44 41 43 31 32 34 29 24 23 30 25 6 6 21 22 24 34 29 27 30 35 34 32 23 31 36 41 38 40 37 33 31 32 37 41 45 46 49
40 50 53 52 50 54 46 49 44 38 39 36 39 23 22 15 26 26 29 18 31 31 36 29 40 27 29 27 23 30 38 43 40 42 34 30 31 34 39 45 47 48 52
48 47 52 55 55 55 60 52 49 47 46 42 39 46 34 28 21 21 26 24 33 43 40 25 25 29 34 29 25 30 38 41 40 36 28 28 29 34 41 47 48 51 53
53 57 42 58 60 67 63 58 62 61 54 53 50 47 55 51 46 42 34 29 30 29 33 29 29 33 28 29 40 37 42 41 37 27 25 24 28 35 42 46 51 53 51
37 52 50 37 42 55 54 60 72 69 62 58 62 61 55 58 48 43 37 28 30 30 29 33 35 29 31 34 40 45 46 38 25 22 20 22 28 35 42 47 52 50 44
42 46 47 45 43 49 56 64 69 67 64 62 64 68 66 60 59 47 39 32 32 34 33 28 38 30 30 40 43 44 43 30 23 20 18 22 27 35 42 48 51 45 37
36 43 48 48 51 47 53 57 62 66 67 67 67 68 66 64 56 53 44 38 40 36 37 27 23 30 26 35 34 37 30 26 21 18 20 23 28 34 41 48 49 40 31
25 30 39 48 52 46 48 47 49 49 54 58 66 67 67 58 53 49 46 39 44 35 36 24 16 33 30 34 37 35 24 16 16 18 23 26 25 32 41 46 46 34 26
31 33 35 36 36 33 35 39 45 47 45 49 53 65 63 56 49 41 34 33 37 33 35 29 27 28 28 33 36 34 22 14 20 26 19 27 25 33 38 45 43 27 18
25 31 39 37 34 35 40 45 41 44 44 43 42 44 55 56 39 38 48 40 37 37 37 43 24 31 36 32 25 25 20 15 19 15 22 24 30 35 37 40 47 29 10
26 23 23 42 45 42 40 41 41 40 39 42 39 47 52 52 47 47 46 54 41 39 46 45 38 35 29 28 25 23 18 10 8 12 23 22 28 32 34 34 49 37 16
12 17 22 21 35 40 38 38 37 43 45 43 38 47 56 53 52 51 53 49 49 46 43 43 46 33 31 28 37 23 17 11 14 25 27 21 22 29 31 30 42 41 27
17 13 10 19 21 26 38 46 42 39 49 43 34 37 44 47 57 51 48 49 52 50 60 47 46 38 36 34 28 22 19 13 29 24 22 11 18 28 32 36 40 43 29
21 16 15 17 21 27 26 23 38 44 54 56 46 42 43 51 59 61 61 62 67 58 59 61 53 43 40 37 44 40 38 31 30 19 17 17 18 23 29 34 36 36 39
31 20 19 18 28 26 29 34 32 34 46 57 62 70 75 73 71 75 73 64 77 81 71 72 64 70 53 55 41 43 38 38 32 27 31 19 13 24 28 35 38 34 39
38 32 23 19 32 29 31 38 40 41 44 46 53 64 63 61 61 63 61 60 58 71 77 75 82 72 76 70 56 49 43 38 32 19 21 29 20 22 30 30 38 33 36
42 41 27 31 32 35 28 43 43 45 46 44 53 52 58 59 62 62 62 66 70 71 75 84 92 94 93 94 89 66 62 48 30 22 21 24 19 19 18 32 29 38 35
Wind_Direction_850mb
194 218 194 219 264 300 284 283 269 289 292 345 20 284 269 245 263 314 316 318 339 312 308 293 263 257 269 278 275 277 281 280 285 293 297 296 292 293 297 298 300 299 299
210 198 208 209 194 213 259 215 266 286 338 270 308 310 274 264 292 322 326 332 335 343 318 294 276 269 277 286 289 291 293 293 297 303 304 302 303 298 296 299 297 291 289
206 205 200 213 206 231 248 252 271 302 334 311 280 298 264 283 270 240 291 319 330 340 5 314 283 291 293 292 294 303 312 319 326 324 317 314 309 304 307 302 303 298 287
215 217 199 206 203 243 253 258 263 256 300 285 285 287 284 265 263 290 165 312 321 334 336 2 325 297 299 304 306 333 336 336 332 326 323 322 318 316 314 313 309 302 298
236 221 214 198 206 218 255 257 246 232 241 287 247 263 229 249 274 286 249 233 263 299 307 310 327 295 289 292 301 322 335 338 339 336 337 336 331 333 333 330 327 322 312
239 226 214 194 206 219 214 241 233 216 238 224 256 252 207 215 259 255 270 284 270 256 286 291 310 300 351 314 298 316 331 343 346 339 334 332 330 337 342 338 334 329 319
238 227 217 207 209 200 214 231 238 245 238 238 235 243 279 304 269 239 253 279 224 271 239 281 311 299 318 319 316 303 334 335 343 337 330 324 328 338 337 335 333 327 323
231 230 231 221 220 215 212 220 232 230 225 201 225 225 257 255 271 265 219 244 229 257 242 262 275 279 293 304 310 312 319 323 332 334 327 325 332 335 332 334 332 331 328
232 229 236 227 222 224 221 223 229 215 206 222 235 216 251 243 329 247 253 225 229 253 232 267 259 237 257 268 290 305 302 308 317 324 322 323 329 330 331 334 334 331 327
241 232 229 226 214 222 226 234 232 218 209 200 226 247 244 254 276 136 242 268 236 242 249 225 260 267 282 283 276 285 292 297 308 318 318 319 327 334 333 337 333 330 326
251 235 236 237 225 221 223 223 225 225 213 208 208 231 252 265 259 268 281 265 256 258 254 239 230 269 277 284 282 261 274 289 302 311 313 321 329 338 342 340 334 337 333
259 250 243 234 231 219 219 222 225 225 215 215 213 207 210 222 238 244 249 267 267 268 255 239 245 251 257 278 277 274 272 284 298 304 310 321 334 344 345 344 343 340 335
259 266 263 247 233 232 225 227 224 232 227 226 228 224 216 213 215 217 223 252 259 290 215 209 234 252 259 254 255 259 274 287 297 298 310 325 343 349 349 347 344 340 339
243 252 259 254 252 236 229 225 228 233 240 233 235 240 234 230 221 227 235 236 248 267 232 262 257 262 241 240 245 263 270 285 288 298 315 336 349 353 351 348 344 343 346
247 238 243 249 249 228 228 228 233 238 241 243 244 244 245 233 222 223 230 228 234 258 267 263 241 239 222 235 252 263 274 280 290 299 320 342 350 355 353 349 346 348 351
250 248 244 241 237 239 242 241 241 242 243 247 243 245 242 239 233 224 224 232 236 242 260 268 271 225 234 235 246 267 272 275 282 295 323 337 352 354 354 352 349 352 352
247 242 242 247 229 249 255 246 244 240 251 248 246 247 248 243 238 230 227 235 240 241 251 256 233 222 232 237 256 271 265 264 278 306 307 334 350 356 358 358 354 351 1
263 256 250 241 243 241 247 239 241 241 247 256 260 251 249 241 243 234 224 238 238 236 243 236 226 224 235 258 259 251 250 245 268 279 302 327 347 352 359 1 357 353 31
321 268 243 213 216 244 251 246 255 260 258 256 257 246 244 237 238 239 221 220 227 230 247 232 227 239 257 265 240 234 246 256 248 283 309 323 334 345 351 355 358 351 9
338 323 269 244 254 255 246 251 254 260 252 257 255 236 241 236 233 233 236 229 223 234 239 251 233 239 252 248 237 241 239 261 291 272 286 313 323 333 332 340 357 355 331
300 326 325 284 262 261 252 242 247 249 251 258 261 244 239 234 229 231 240 238 228 231 231 241 243 233 242 246 239 245 249 227 239 256 267 293 301 319 308 322 344 352 357
313 310 290 311 307 287 269 253 247 238 253 260 264 255 242 232 238 235 240 252 248 229 233 234 244 228 245 251 251 229 221 228 245 256 258 275 269 296 289 307 324 347 343
298 310 327 311 294 297 302 289 274 261 249 248 248 252 255 261 256 242 238 256 248 240 232 235 234 246 240 244 237 218 219 225 237 254 245 276 250 255 287 295 314 331 347
277 291 306 331 319 319 307 296 290 286 272 264 261 258 264 268 261 254 257 258 245 235 232 228 235 239 228 252 221 227 246 246 249 250 263 269 224 256 277 296 311 315 334
287 283 296 308 300 304 307 296 287 285 287 288 271 262 263 266 262 255 256 258 254 243 234 234 233 230 230 251 245 248 242 261 256 248 267 253 253 229 277 291 298 303 320
267 276 270 271 284 295 289 285 289 293 275 281 289 279 263 262 263 259 256 258 259 257 242 237 238 244 249 236 240 236 248 251 246 236 260 232 215 226 243 280 285 304 310